RH
64 79 87 90 83 78 81 78 68 67 73 75 79 88 93 93 94 95 97 98 95 87 78 74 76 81 89 95 95 92 91 91 93 97 100 101 100 98 99 99 100 100 99 98 97 95 93 88 84 80 76 73 69 65 62 59 59 58 57 54 48 41 34 27 22 19 17 16 15 15 15 14 14 13 13 13 13 12 12 12 12 12 12 12 12 13 13 14
59 75 83 86 85 90 95 88 82 84 87 88 90 96 99 100 98 95 96 94 86 80 80 86 92 98 102 101 98 96 97 97 100 103 103 100 99 98 99 100 100 99 99 98 95 91 87 82 78 73 69 65 63 62 62 60 57 52 44 35 28 22 18 16 15 14 13 13 12 11 11 11 11 11 11 11 11 11 11 10 10 10 10 10 10 10 10 10
54 72 80 83 88 99 104 101 100 99 101 101 100 104 106 103 100 96 94 90 87 90 96 101 101 103 105 104 103 102 101 101 105 108 103 100 100 100 100 100 100 100 98 95 91 85 81 76 71 69 68 67 65 62 56 47 37 29 22 18 15 13 13 12 11 11 11 11 10 11 11 11 11 11 12 12 12 12 11 11 12 12 12 12 11 11 11 11
48 68 76 79 90 104 108 107 107 103 104 107 106 108 108 104 103 103 100 97 98 102 103 103 103 108 110 106 104 103 102 101 104 104 102 100 100 100 101 100 99 97 93 89 84 78 74 72 71 69 67 61 51 40 30 23 17 15 13 12 11 11 10 10 11 11 11 11 11 11 12 12 12 12 13 13 13 13 13 13 14 14 14 14 14 13 13 13
40 62 76 82 94 105 108 108 106 103 104 107 106 105 106 106 105 105 105 102 102 102 102 101 102 109 109 104 102 102 101 101 100 100 100 100 100 100 100 97 93 89 84 80 76 73 72 71 66 56 45 34 25 19 15 13 12 11 11 10 11 11 11 11 12 12 12 12 12 13 13 13 13 13 13 13 13 13 13 14 14 14 14 14 14 15 15 15
35 57 77 88 99 105 105 106 106 105 106 107 105 102 102 104 103 102 102 101 101 101 101 100 101 106 105 101 101 100 100 100 100 101 100 101 102 100 96 91 87 83 79 76 75 72 65 54 41 30 22 17 14 13 12 11 11 11 12 12 13 13 14 14 15 15 16 16 16 17 17 16 16 16 16 16 16 15 16 16 16 16 16 16 16 16 16 16
33 55 78 89 100 106 105 108 109 106 106 105 105 106 104 104 102 100 100 100 101 101 101 100 102 103 101 100 100 100 100 101 101 101 102 101 99 94 89 84 81 79 78 74 66 54 39 27 20 16 14 12 12 12 12 13 13 14 15 16 17 17 18 20 20 20 21 22 22 22 22 22 22 21 21 21 20 21 21 20 20 20 20 20 20 20 20 19
33 53 79 92 100 104 105 109 108 105 106 102 104 107 106 104 102 100 100 101 101 101 101 101 102 101 100 100 100 100 101 101 102 102 101 98 93 88 84 81 79 75 66 53 38 26 19 15 14 12 12 13 13 14 15 16 17 19 20 22 23 24 25 26 26 26 27 27 27 27 27 26 26 26 26 25 25 26 26 26 25 25 25 25 25 24 23 23
32 49 81 99 102 101 103 107 105 103 107 105 105 105 103 102 101 100 100 101 100 100 101 101 101 100 100 101 101 101 101 101 101 99 96 91 87 83 81 77 68 54 38 26 19 15 14 13 13 13 15 16 17 19 20 22 24 26 27 28 28 29 29 29 29 30 30 31 31 31 31 30 30 29 29 29 29 29 30 30 30 30 30 29 29 29 30 30
31 47 82 104 102 101 103 105 102 101 104 104 105 103 101 101 100 100 100 100 100 100 101 100 100 100 100 102 102 100 99 100 99 95 91 86 84 80 71 58 41 27 19 16 15 14 14 15 16 17 18 20 23 26 27 29 29 29 29 28 28 28 28 28 28 29 29 30 30 30 30 31 31 30 30 30 31 31 31 31 31 31 31 30 31 31 33 35
31 46 82 105 101 101 103 102 101 100 101 101 102 102 100 101 100 100 100 100 101 100 100 100 100 101 101 101 100 99 99 99 96 91 87 84 77 64 45 29 20 16 15 15 15 17 18 20 21 22 24 27 29 29 29 28 28 27 27 26 26 26 26 26 26 26 27 27 27 28 29 30 29 28 29 29 30 31 32 32 31 30 30 29 30 31 32 33
31 47 81 105 101 101 102 101 101 100 101 101 101 101 100 100 100 100 100 100 101 100 100 100 100 101 102 101 100 101 98 93 89 86 82 71 54 34 22 17 16 16 17 18 20 22 23 24 26 28 29 29 28 27 27 26 26 25 25 25 26 26 26 25 26 26 26 27 27 27 29 31 29 28 29 29 29 30 32 33 33 33 32 31 31 32 32 32
30 48 82 105 102 101 101 100 101 100 101 100 100 101 100 100 100 100 100 100 101 100 100 100 101 101 102 101 100 97 93 88 84 75 60 41 25 18 17 18 18 19 22 23 24 25 26 28 29 29 28 28 27 27 26 25 25 25 26 26 27 28 29 27 26 26 26 26 26 26 26 28 27 26 28 28 28 28 28 28 30 32 33 34 35 35 34 33
32 54 84 106 103 100 101 100 101 100 100 101 100 100 100 100 100 101 102 102 101 100 100 101 102 102 101 100 96 91 87 80 67 48 31 20 17 18 19 20 22 24 24 25 26 27 28 29 29 29 29 28 26 25 25 26 26 26 27 28 27 28 29 28 26 25 25 25 25 23 23 24 23 23 23 24 24 24 23 21 21 23 25 27 29 31 32 32
37 67 90 105 103 100 101 100 100 100 100 100 100 100 100 100 100 103 104 101 100 100 101 102 102 101 99 96 91 85 75 58 38 24 18 18 19 20 21 23 24 25 26 28 29 29 29 30 29 29 27 26 25 25 26 27 27 26 27 27 27 27 28 28 26 25 25 25 24 23 22 22 20 20 21 21 21 21 20 18 16 15 15 17 18 20 22 24
39 72 93 104 105 101 100 100 100 100 100 100 100 100 100 100 102 104 102 100 101 101 101 102 101 98 95 91 82 68 48 30 20 18 19 20 21 22 25 26 25 26 28 29 29 29 29 28 27 26 26 28 28 28 28 27 28 28 29 29 29 29 28 28 27 26 25 25 24 23 21 20 19 19 19 19 19 18 17 16 14 13 11 11 11 12 13 15
35 64 89 104 107 103 101 101 100 100 100 100 100 100 100 102 103 102 100 100 101 101 101 100 98 94 88 78 59 38 24 18 18 20 20 22 23 25 26 26 26 27 28 28 28 26 25 25 26 28 29 30 30 30 30 30 31 32 32 31 30 29 29 28 28 26 25 24 22 21 19 18 18 17 17 17 17 16 15 15 13 12 10 9 9 9 10 10
34 52 79 99 107 106 103 102 102 100 100 100 100 101 102 103 102 100 100 101 101 101 100 97 93 86 71 51 31 20 19 20 20 21 23 24 25 26 25 25 27 28 28 28 26 26 28 30 31 32 32 32 33 33 32 31 31 31 30 29 28 28 28 27 26 25 23 22 20 19 17 16 15 15 15 15 15 14 13 12 11 10 9 8 8 8 8 8
35 46 66 86 102 108 106 105 104 101 100 100 101 103 104 102 100 100 101 101 100 99 97 93 82 64 42 25 19 20 22 21 22 24 25 26 25 24 24 26 27 29 29 28 30 32 34 35 35 34 34 34 35 33 32 30 29 29 28 27 26 26 28 26 24 23 22 20 18 16 14 13 13 13 13 13 12 12 11 10 9 8 7 7 7 7 7 7
38 46 59 76 95 103 103 106 107 102 101 103 104 105 103 100 100 101 100 100 99 97 89 74 53 33 22 20 22 22 22 22 24 24 24 24 23 22 24 26 28 31 32 33 36 37 35 34 33 32 32 32 32 31 30 29 28 29 28 27 27 26 28 27 24 22 21 19 16 14 12 11 11 11 11 11 10 9 8 8 7 7 7 6 7 6 7 7
36 44 56 71 82 86 92 102 106 103 103 105 105 103 100 100 101 100 99 100 98 86 64 41 25 20 21 23 23 22 23 24 23 23 22 21 21 24 27 28 31 36 38 37 36 34 32 31 30 30 31 30 31 31 31 30 29 29 29 28 28 27 27 28 26 23 21 18 15 13 11 10 10 10 10 9 8 8 7 7 7 7 7 7 7 7 7 7
29 39 52 63 70 78 91 102 103 103 104 102 100 100 101 100 100 100 101 95 78 53 32 21 20 22 23 22 22 23 22 21 21 21 21 23 25 28 30 32 34 39 40 36 34 33 31 30 29 30 30 29 30 31 32 32 31 30 29 29 29 28 27 27 26 23 20 17 14 12 10 9 9 9 8 8 7 7 7 7 7 7 7 7 7 7 7 6
28 42 57 70 81 93 102 104 102 101 101 100 100 101 99 100 101 98 87 65 41 25 20 21 22 22 22 22 23 22 21 21 24 26 27 29 30 31 33 35 35 36 37 33 32 32 31 29 29 29 29 29 30 31 33 34 34 33 31 31 31 30 28 27 25 23 20 16 13 11 9 8 8 8 8 7 7 7 7 7 7 7 7 7 7 7 7 6
43 64 81 92 99 104 104 102 100 100 100 101 100 99 100 101 94 75 51 31 22 21 22 23 22 22 23 23 23 23 24 27 29 30 32 33 33 33 33 34 33 33 33 31 31 31 31 29 29 29 29 30 30 31 33 34 36 36 34 33 32 30 29 27 25 22 19 16 12 10 8 8 8 8 7 7 6 7 7 6 6 7 7 6 6 6 6 6
74 92 100 102 102 101 101 100 100 101 100 99 100 101 98 85 62 39 25 21 22 23 23 22 22 24 25 25 24 25 28 32 33 35 36 35 34 33 31 30 29 29 31 31 31 31 31 31 31 32 31 31 31 31 32 34 36 36 35 34 32 30 29 27 25 21 17 14 11 9 7 7 8 8 7 6 6 6 6 6 6 6 6 6 6 6 5 5
97 102 102 101 100 99 100 101 100 99 100 101 100 91 72 49 31 22 21 23 23 23 22 22 24 26 27 27 27 29 32 33 34 36 36 34 32 30 29 27 26 28 31 32 32 31 32 33 34 35 34 32 32 32 33 35 36 36 36 34 32 30 29 28 25 21 16 12 10 8 6 7 8 7 6 6 6 6 6 6 6 6 6 6 5 5 5 4
104 101 100 100 100 101 101 100 99 101 102 95 78 57 37 25 22 22 23 23 22 21 22 23 27 28 28 28 29 31 33 33 33 32 30 30 30 29 29 27 25 26 30 33 34 34 35 36 36 37 38 36 34 33 34 36 37 37 36 35 32 31 29 28 25 21 16 12 9 7 6 7 8 7 6 6 6 6 6 6 6 6 6 5 5 4 4 4
102 99 100 101 101 100 99 101 102 98 84 63 43 29 23 22 23 24 23 22 21 22 26 29 30 29 29 30 31 31 31 31 30 30 29 30 29 29 29 28 27 27 29 32 35 35 35 37 38 38 40 41 38 36 35 37 37 37 37 36 33 31 29 27 25 21 16 11 8 7 7 7 8 7 6 7 7 7 6 6 6 5 5 5 4 4 4 4
100 100 101 99 99 101 102 100 88 68 48 33 25 22 22 23 24 23 21 21 23 26 30 31 31 30 30 30 31 31 31 30 29 29 29 28 28 28 28 28 30 30 29 30 33 35 36 37 39 41 42 44 42 39 38 38 38 37 36 36 34 32 30 28 25 21 16 11 8 8 8 8 8 8 7 7 7 6 6 5 5 5 5 4 4 4 4 4
100 101 100 101 104 101 90 71 51 36 28 24 22 22 23 24 22 20 21 23 26 29 30 31 29 29 28 28 29 31 30 29 29 28 27 27 28 27 28 31 33 30 29 29 30 34 38 39 41 43 44 45 44 42 40 39 39 37 35 34 33 32 30 28 24 21 16 11 8 7 8 8 7 7 7 7 6 6 5 5 5 5 4 4 5 4 4 4
104 105 105 102 92 74 53 38 30 26 23 21 23 24 24 23 20 20 23 26 28 30 30 29 28 27 27 28 30 30 30 30 30 31 32 32 30 29 32 35 34 32 34 35 33 37 44 46 46 46 46 45 46 46 44 42 40 38 35 33 30 29 28 25 21 18 13 9 7 6 7 7 7 7 7 7 6 5 5 4 4 4 4 4 5 4 5 5
109 104 92 73 54 40 32 27 24 21 22 24 25 23 21 22 22 23 26 28 30 31 29 28 27 27 28 30 31 32 34 36 37 38 39 36 33 30 31 33 33 34 37 40 39 42 50 53 51 51 48 46 46 46 45 43 41 38 36 33 30 27 25 22 19 16 12 9 6 6 6 7 7 7 7 6 5 5 4 4 4 4 4 4 4 4 4 4
90 71 53 39 33 30 26 22 21 23 26 26 23 21 22 24 24 25 29 31 31 30 28 28 27 27 29 32 37 42 45 44 43 43 43 40 37 33 32 34 36 38 39 40 40 41 47 52 53 53 51 47 45 43 43 42 40 38 36 34 31 28 25 22 19 15 12 9 7 6 6 7 7 7 7 6 5 4 4 4 4 4 4 4 4 4 4 4
50 38 33 31 28 24 20 21 25 26 26 23 21 23 26 26 26 29 32 31 31 30 29 28 28 29 33 41 51 55 54 52 49 48 47 46 43 39 38 39 41 43 42 42 44 43 43 48 52 52 52 49 46 44 43 42 40 39 38 36 34 31 27 24 20 16 12 9 6 6 6 7 7 7 6 5 4 4 4 4 4 4 4 4 4 4 4 4
32 31 29 25 21 21 23 25 26 25 24 22 22 26 29 28 28 31 32 32 32 32 31 30 30 31 39 52 61 60 57 55 53 52 51 50 48 45 43 43 44 48 46 43 48 49 46 48 52 53 53 52 49 46 44 43 42 40 39 38 36 33 28 24 21 16 12 9 7 6 7 7 7 7 6 5 4 4 4 4 4 4 4 4 4 4 4 4
31 27 23 21 22 24 26 26 25 24 24 22 25 30 30 29 30 33 33 33 34 34 34 33 31 33 44 56 61 62 60 57 55 56 56 55 53 50 48 47 47 51 51 47 49 52 50 49 51 54 56 56 53 50 47 44 43 41 40 38 36 34 30 25 21 17 13 10 7 6 7 7 7 7 6 5 4 4 4 4 4 4 4 4 4 4 4 4
25 22 22 23 25 27 27 27 25 24 25 25 29 33 31 31 33 34 35 35 36 37 38 37 35 37 46 54 60 64 63 60 58 59 60 59 58 55 53 52 51 53 55 52 52 53 52 51 51 53 57 59 57 54 50 47 45 44 41 37 34 33 32 27 21 18 14 10 8 7 7 7 7 6 5 4 4 4 4 4 4 4 4 4 4 4 4 4
22 22 25 26 27 29 28 25 24 26 27 28 32 34 32 33 35 36 37 37 38 41 42 42 42 44 48 53 59 65 67 66 62 61 62 63 62 61 58 56 55 56 57 58 57 56 55 53 51 50 53 57 58 56 54 50 46 45 42 39 36 34 34 31 24 19 16 12 8 7 7 7 6 6 5 4 4 4 4 4 4 4 4 3 3 4 3 3
24 26 27 28 30 29 27 26 27 28 29 31 34 34 32 34 36 38 39 40 42 46 47 48 50 51 53 56 59 66 70 67 62 62 64 64 65 66 64 60 58 59 61 62 62 61 58 55 53 51 51 53 56 55 53 49 44 43 42 40 39 36 35 35 28 21 18 14 9 7 7 7 6 6 5 4 3 3 4 4 4 4 4 4 4 3 3 3
25 28 29 30 31 29 28 29 29 29 31 33 33 32 32 36 39 42 43 45 48 51 53 56 58 59 60 61 63 67 69 66 61 62 64 66 68 69 68 65 62 62 64 66 66 65 62 58 54 52 51 51 53 52 50 49 45 43 43 41 40 37 35 34 30 23 18 15 11 7 6 6 6 6 5 4 4 3 4 4 5 5 4 4 4 4 4 3
28 31 32 32 31 29 30 32 31 31 32 33 32 32 35 40 44 47 48 50 53 56 59 63 64 65 65 65 67 69 68 64 59 59 63 67 70 71 70 68 66 66 67 69 71 70 66 63 58 53 51 50 52 54 54 55 54 50 46 44 42 39 36 34 32 26 19 15 12 8 7 7 6 6 5 5 4 4 4 4 5 5 4 4 4 4 4 3
31 34 35 33 30 30 32 33 32 32 32 33 32 34 40 47 51 52 53 56 58 61 64 67 68 68 67 67 69 68 66 62 57 57 62 66 71 73 72 71 69 70 70 73 76 75 69 66 63 60 58 56 57 62 65 64 61 55 50 47 44 41 39 36 34 30 22 15 12 8 6 7 6 6 6 5 5 4 4 4 5 5 4 4 4 4 4 4
34 38 36 33 31 32 32 33 35 34 33 32 34 39 48 56 60 61 61 62 64 65 68 70 69 68 67 67 66 65 62 59 56 56 59 65 70 73 74 74 73 73 74 76 80 80 73 66 63 60 58 57 55 57 62 63 60 56 51 48 46 42 40 37 33 32 26 17 12 8 7 7 7 7 6 6 5 4 4 4 4 4 4 4 4 4 4 4
38 39 36 33 33 32 32 36 38 36 33 33 38 48 58 64 68 70 70 68 68 70 71 71 70 68 66 64 62 59 58 57 56 56 58 63 68 72 75 78 77 76 77 79 82 84 79 68 63 58 50 46 44 42 47 53 57 57 52 48 46 43 40 37 32 30 28 21 14 9 7 6 6 6 7 6 5 4 4 4 4 4 4 3 4 4 4 4
39 39 36 35 34 32 34 38 40 37 34 35 44 57 65 68 71 72 73 72 71 71 73 72 71 68 65 62 58 55 56 56 56 56 57 60 63 69 74 78 80 80 79 82 83 87 85 75 68 65 54 46 43 38 39 47 53 56 54 49 46 44 41 38 34 29 27 24 19 12 8 6 6 6 6 6 5 4 4 4 4 4 4 4 4 3 3 4
40 39 37 36 34 34 36 39 41 39 36 39 51 63 66 68 70 71 72 72 70 71 72 70 69 68 65 61 57 55 56 56 56 56 57 57 58 64 70 75 79 79 80 83 84 87 90 82 73 71 62 52 48 43 40 46 51 54 55 52 47 44 42 40 36 31 26 24 22 16 10 7 6 6 5 5 5 4 3 3 4 4 4 4 4 3 3 3
39 38 37 37 36 36 37 41 43 41 38 45 58 66 65 66 70 71 71 71 68 68 69 68 68 68 65 61 58 57 57 55 54 55 55 55 55 58 66 71 73 75 77 80 81 84 87 83 76 76 68 56 51 47 41 44 50 54 56 55 50 45 43 41 38 34 29 24 22 19 13 8 6 6 5 5 5 4 4 3 3 4 4 4 3 4 3 3
38 38 39 38 38 38 39 44 46 42 42 52 62 65 64 65 70 72 73 73 69 66 68 69 69 68 67 66 63 61 59 57 54 53 54 55 55 56 63 67 68 68 69 72 75 78 81 79 76 77 73 62 54 49 42 42 49 54 56 58 55 49 45 42 39 37 33 28 25 22 18 12 8 6 5 5 5 5 4 4 4 4 4 4 4 3 3 3
38 39 40 40 40 40 41 45 47 44 47 57 63 62 62 66 72 76 75 75 74 72 73 75 74 72 71 69 66 64 62 60 57 54 53 54 55 56 61 65 64 63 62 64 68 72 75 74 72 73 75 68 59 52 44 41 47 53 57 59 59 54 49 44 40 38 36 33 29 26 23 17 10 7 6 5 5 6 5 4 4 4 4 4 4 4 4 4
38 40 42 43 43 43 42 45 48 47 50 59 62 62 65 71 76 80 79 79 82 83 83 84 82 79 74 71 69 66 63 61 59 56 53 53 55 57 60 63 62 60 59 60 63 67 70 71 70 70 71 69 63 56 48 42 44 52 58 60 59 55 51 47 42 38 36 34 31 28 24 20 13 8 7 6 5 6 6 5 4 4 4 4 4 4 4 4
40 41 43 45 45 46 45 46 49 50 52 59 62 63 69 75 79 83 83 82 84 86 87 88 87 83 78 73 70 67 64 61 58 55 53 52 53 56 60 62 62 60 59 59 60 63 65 69 70 69 68 67 63 57 51 45 43 47 54 59 59 55 52 51 47 42 38 36 33 29 25 22 17 12 8 6 6 5 5 5 4 4 4 4 4 4 4 4
41 43 44 46 48 50 49 49 51 53 54 58 61 64 70 77 81 82 82 81 82 83 84 85 86 83 79 75 72 68 64 60 56 55 54 52 52 55 58 61 62 60 58 57 57 58 61 65 69 68 67 66 62 58 54 47 42 42 48 55 60 58 54 52 50 46 43 41 38 33 28 25 22 17 10 6 6 5 5 5 4 4 4 4 4 4 4 4
Wind_Speed
45 45 45 44 42 37 33 31 31 29 27 25 26 28 29 30 30 30 30 29 29 28 28 28 28 29 30 31 33 34 36 38 40 43 44 46 48 49 51 53 55 57 59 61 63 65 67 69 71 73 75 76 78 80 82 84 85 87 88 89 90 90 89 89 88 88 88 88 88 88 88 88 89 89 90 90 91 92 93 94 94 95 95 95 96 96 96 96
45 44 43 41 38 34 32 30 28 27 25 25 27 29 29 30 29 29 29 28 28 27 27 28 28 29 30 32 34 36 38 40 41 43 45 46 48 50 53 55 57 59 61 63 65 67 69 72 74 75 77 79 80 82 84 85 86 87 87 87 86 85 85 85 84 84 85 85 85 85 85 85 86 86 87 88 89 91 91 92 92 93 93 93 94 94 94 94
45 43 42 40 36 34 32 29 27 26 26 26 28 29 29 29 29 28 27 27 27 27 27 27 28 30 32 34 36 37 39 41 42 44 46 48 50 53 55 57 59 62 64 66 68 70 72 74 75 77 79 81 83 84 84 84 83 83 82 81 81 80 80 80 80 80 81 81 82 82 83 83 84 84 85 87 88 90 91 91 91 92 92 93 93 93 93 94
44 43 41 39 36 33 32 30 28 27 27 27 28 29 29 28 28 27 27 26 26 26 27 28 29 31 33 35 37 38 40 42 44 46 48 50 52 55 57 59 61 63 66 68 70 72 74 76 77 79 80 81 81 81 80 79 78 77 77 76 76 76 77 77 77 78 79 80 81 81 82 83 84 85 86 87 89 90 91 90 91 92 92 93 94 94 95 95
42 42 40 38 36 34 32 31 29 28 28 29 29 29 28 27 27 26 26 26 26 26 28 29 31 33 35 37 38 40 42 43 45 48 50 52 54 57 59 61 63 65 68 69 71 74 75 77 78 78 78 77 76 75 75 74 74 73 74 74 74 75 76 77 78 79 80 81 82 83 84 85 85 86 87 89 90 91 91 91 91 93 93 94 94 95 96 96
41 40 39 37 35 33 32 32 30 30 31 31 30 28 26 26 26 26 26 26 27 28 30 32 33 35 36 37 39 41 42 45 47 49 52 54 56 59 61 63 65 67 69 71 73 75 76 76 75 74 73 72 71 71 71 71 71 72 73 74 75 76 77 78 80 81 82 83 84 85 86 87 87 88 89 91 93 93 93 93 93 94 95 95 96 97 97 98
41 40 39 37 34 33 32 32 32 33 33 32 29 27 26 25 26 26 26 27 29 30 32 33 34 35 36 38 40 42 44 47 49 52 54 56 59 61 63 65 67 69 71 73 73 73 72 70 69 68 68 67 68 68 69 70 71 72 73 75 76 77 78 79 80 81 82 84 85 86 87 88 89 90 91 93 94 95 96 96 96 96 96 97 98 99 100 100
41 40 39 36 34 33 33 34 35 35 34 31 28 27 26 26 27 27 28 29 31 32 33 34 34 35 37 39 41 44 46 49 52 54 56 58 60 62 64 67 69 70 71 71 69 68 66 65 65 64 64 65 66 68 69 70 71 71 72 73 74 75 76 78 79 80 82 83 85 86 87 89 90 91 93 94 95 96 97 97 98 98 99 100 100 101 102 102
40 39 38 36 34 33 34 35 36 35 33 31 29 28 27 27 28 28 30 31 32 33 33 34 35 37 39 41 43 46 49 51 54 56 58 59 61 64 66 68 69 69 67 66 64 63 62 62 62 63 64 65 66 67 67 67 67 67 67 68 69 71 72 74 75 77 78 80 82 84 86 88 90 92 93 95 96 97 98 99 100 101 101 102 102 103 103 104
40 39 38 37 35 34 35 36 36 35 33 31 30 29 29 28 29 30 31 32 32 33 33 35 37 39 41 43 46 48 51 53 55 56 58 60 63 65 67 67 66 64 62 61 60 60 60 61 61 62 63 63 62 62 61 61 61 62 62 63 65 67 68 69 71 73 74 76 77 79 81 84 87 90 92 93 95 96 98 100 101 102 103 103 104 104 104 105
40 39 39 37 36 36 37 36 35 34 33 31 30 30 29 29 29 30 31 32 32 33 35 37 38 40 43 45 48 50 52 53 55 57 59 62 64 65 64 62 60 58 58 57 58 58 59 59 60 59 58 57 55 55 55 56 58 60 62 64 65 67 69 69 71 72 74 74 74 75 76 79 83 85 87 89 91 94 97 99 101 102 103 104 104 104 105 106
40 39 39 38 37 37 37 36 35 34 32 31 30 30 29 29 29 30 31 31 32 34 36 38 40 42 44 47 49 51 53 54 56 59 61 62 62 59 57 55 55 55 55 55 55 55 56 56 55 54 52 52 52 53 54 56 58 61 64 66 68 71 72 72 73 74 75 75 74 73 73 76 80 81 83 86 88 91 94 97 99 101 102 103 103 104 105 106
39 39 39 39 39 38 36 35 34 33 32 31 30 29 29 29 29 30 31 32 33 35 37 39 41 44 46 48 49 51 53 55 58 60 60 58 55 53 51 51 51 52 52 52 53 52 52 51 50 50 51 52 53 54 56 58 61 64 67 69 70 73 76 77 77 77 76 75 74 72 70 72 77 78 80 83 86 89 92 94 96 98 99 100 101 102 104 105
39 39 40 40 39 38 36 35 34 32 31 30 29 29 29 29 29 30 31 33 34 36 38 41 43 45 46 48 50 52 54 57 58 57 54 50 48 48 48 49 49 48 49 49 49 49 48 48 49 51 52 54 55 56 58 62 64 66 69 71 72 73 77 80 80 79 78 76 75 73 69 69 73 74 77 80 82 85 88 91 93 95 97 98 99 100 102 104
38 39 40 40 39 37 36 34 33 32 30 29 28 28 28 28 29 30 32 33 35 37 40 42 43 45 47 48 51 53 55 55 52 49 46 44 44 45 46 46 45 46 46 47 47 47 48 49 50 52 54 56 57 58 61 65 67 69 70 73 74 75 77 81 82 80 79 78 77 76 72 70 71 72 75 78 80 82 84 87 89 91 93 94 96 98 100 101
38 40 40 40 38 37 35 34 33 31 29 28 27 27 27 28 30 31 33 34 36 38 40 42 43 45 47 50 52 53 51 48 44 42 42 42 42 43 43 43 43 44 44 45 46 47 49 50 51 53 56 59 61 63 65 68 70 71 72 74 75 76 77 79 82 82 80 78 77 77 74 71 71 72 75 78 80 81 82 84 85 87 89 90 92 94 96 98
38 40 40 39 38 36 34 34 32 30 28 27 27 27 28 29 30 32 33 34 36 38 40 42 43 45 48 50 50 47 44 41 40 40 39 39 40 40 40 40 42 43 44 45 46 47 49 51 53 57 59 62 65 67 68 68 69 70 72 73 75 78 80 80 81 82 80 78 76 76 75 73 72 73 75 78 80 81 81 81 82 83 84 85 87 89 91 93
37 38 38 38 36 34 34 33 31 29 28 27 27 28 28 29 30 31 33 34 36 38 40 41 44 46 47 46 43 40 39 38 38 37 37 37 37 37 39 40 42 44 46 47 49 51 53 56 59 61 63 65 67 68 69 68 69 71 73 75 77 79 83 84 83 82 80 78 76 74 73 73 73 75 76 78 79 80 80 80 80 80 81 82 83 84 86 87
36 36 37 36 34 33 33 32 29 28 27 27 27 28 28 29 30 31 33 35 36 38 40 42 44 45 43 40 36 35 35 34 34 34 34 35 35 37 39 41 44 47 49 52 54 56 58 60 62 63 65 67 68 69 70 72 73 75 77 79 80 82 85 87 86 85 83 79 77 74 72 71 73 74 76 76 77 79 80 79 79 79 78 79 79 80 82 83
35 35 34 33 32 32 31 29 27 26 26 26 26 26 27 28 29 31 33 34 36 38 40 42 41 38 35 33 32 32 32 32 32 32 33 34 35 36 39 42 45 51 53 55 57 58 59 61 62 64 66 67 70 72 75 77 78 80 82 83 85 85 87 89 89 88 86 82 78 74 72 71 73 74 74 74 75 76 78 79 79 78 77 77 77 77 77 78
33 32 31 31 31 30 28 26 24 24 24 24 24 24 26 28 29 30 31 33 35 38 38 37 34 31 29 28 28 29 29 29 29 31 32 33 35 39 43 46 50 54 56 57 58 59 61 62 64 66 68 70 73 76 79 81 81 83 85 87 88 89 89 90 91 90 88 85 80 76 72 71 73 74 73 73 73 74 75 76 76 77 76 76 75 75 75 75
31 29 29 28 27 25 23 22 21 21 21 21 22 24 25 27 28 29 31 33 35 35 32 29 27 26 25 25 26 26 26 27 29 31 33 36 39 43 47 50 53 55 56 57 59 60 63 65 67 69 71 74 76 79 81 84 85 87 88 90 91 91 90 90 90 90 89 87 81 77 74 72 73 74 73 72 72 72 72 72 73 74 75 75 74 74 74 74
27 26 25 24 22 20 19 19 18 19 19 20 22 23 24 25 27 29 31 32 31 28 25 24 23 22 23 23 24 25 26 29 33 37 39 41 44 47 50 53 54 55 55 57 60 63 66 68 70 72 75 77 79 81 83 85 89 91 92 93 93 94 94 92 91 90 90 90 85 79 75 72 74 74 73 72 71 71 71 71 71 72 73 73 73 72 73 73
23 23 22 20 18 17 17 17 17 17 18 20 21 22 23 25 27 29 28 26 24 22 21 20 20 21 22 22 23 26 31 35 38 41 44 45 48 50 52 53 54 55 56 60 64 67 69 72 74 76 78 80 81 82 84 87 90 92 94 95 96 97 98 97 95 92 90 91 88 82 75 71 73 73 71 70 70 69 70 70 70 71 72 72 71 72 72 72
21 20 19 17 16 16 16 16 16 17 18 19 20 21 23 25 26 24 22 20 19 19 19 19 20 21 22 23 26 30 35 39 41 44 45 47 50 52 53 54 55 57 60 64 68 70 72 75 78 80 81 83 84 85 87 89 91 93 95 97 98 99 100 100 99 95 91 90 89 84 77 71 72 73 71 69 69 69 69 69 70 70 71 71 71 71 71 72
20 19 18 17 16 15 15 14 15 16 17 18 19 21 22 22 20 18 17 16 16 16 17 17 19 21 23 26 31 34 37 39 42 44 47 50 52 53 54 56 58 62 65 69 71 73 75 78 81 82 84 85 87 89 90 92 93 95 97 99 101 102 102 101 99 97 94 92 90 87 80 73 72 74 72 69 69 69 68 68 68 69 70 70 70 70 71 71
19 18 17 16 15 14 14 14 14 15 16 18 19 19 18 16 14 14 13 13 13 13 14 16 19 22 25 29 33 36 38 41 44 47 50 51 52 54 57 60 63 66 70 72 74 76 78 81 83 85 86 88 89 91 93 94 96 97 99 101 103 103 103 102 100 97 95 92 88 84 79 72 72 73 70 68 68 67 67 67 67 67 67 68 68 69 69 70
18 17 16 15 14 13 13 13 14 15 16 16 15 13 12 11 12 11 11 12 12 14 17 19 23 26 29 33 35 37 40 44 47 49 50 52 54 57 60 63 67 70 73 75 77 79 82 83 85 87 88 90 92 94 96 97 99 100 101 102 103 104 104 103 99 96 94 91 85 80 74 68 68 70 68 67 67 67 67 67 66 66 66 67 67 67 68 69
18 17 15 14 12 11 11 12 13 13 12 11 10 8 9 9 10 10 11 12 13 16 20 23 26 29 32 34 36 40 44 46 48 49 51 54 57 60 63 67 70 73 76 79 81 83 84 85 87 88 90 92 94 97 99 101 102 102 103 102 103 104 104 102 98 94 92 91 86 80 75 70 68 69 69 67 66 66 66 65 65 65 65 66 66 67 67 68
17 15 13 11 10 11 11 11 10 9 7 6 6 7 7 7 8 9 11 13 15 18 22 25 28 31 33 35 39 43 45 47 49 51 54 58 62 65 68 70 73 76 80 83 84 85 86 87 89 91 92 94 96 99 102 104 104 105 105 104 103 103 103 102 98 94 92 91 88 83 79 75 71 69 68 66 66 65 65 64 64 64 64 65 66 68 69 69
15 13 11 10 10 9 8 7 5 3 3 5 6 7 7 7 8 10 12 15 18 21 24 28 30 32 35 39 42 44 46 48 52 55 59 62 65 67 68 69 72 76 81 84 86 87 88 89 91 92 94 96 97 99 101 103 104 106 108 108 107 105 105 103 99 95 94 93 90 84 80 78 75 70 68 68 67 66 66 65 65 65 65 65 66 67 68 68
13 11 10 8 7 6 4 2 1 3 6 7 7 7 8 9 10 12 14 18 21 25 28 30 32 34 38 41 43 44 47 50 53 56 59 61 64 66 68 69 72 77 81 84 87 88 89 90 92 95 97 98 99 100 101 103 105 108 110 113 114 113 112 110 106 101 98 97 93 87 82 80 77 73 70 69 68 67 66 65 65 65 65 65 66 65 65 64
11 9 8 6 4 3 2 3 6 8 8 8 7 8 10 11 12 14 17 21 24 27 29 32 34 37 40 42 44 46 49 52 54 56 59 61 65 68 70 73 76 80 84 87 89 90 90 92 95 97 100 102 103 104 105 107 110 112 114 118 121 122 121 119 115 109 104 102 97 91 86 82 78 75 72 70 69 67 66 65 64 64 64 64 65 64 62 61
9 7 6 5 4 5 6 8 9 9 9 8 8 11 12 12 13 16 20 23 26 29 31 34 37 39 41 43 46 48 51 52 54 56 59 62 66 68 71 74 77 81 84 87 90 93 95 96 98 100 103 105 107 108 110 111 112 115 117 119 121 123 124 123 120 114 108 105 100 92 87 84 80 78 75 73 72 69 66 65 64 64 63 62 62 61 60 59
7 7 7 7 8 9 10 11 11 10 9 9 10 13 12 12 14 18 21 24 27 30 33 36 38 39 41 43 47 50 52 53 55 57 59 62 65 67 70 73 77 81 84 86 89 94 98 100 101 103 105 107 109 111 112 112 113 115 117 118 120 123 125 123 120 114 108 105 102 94 87 84 80 78 75 72 69 67 65 64 63 62 61 60 60 59 58 57
9 9 10 10 11 12 12 11 11 10 10 11 13 14 12 13 16 19 21 24 27 30 33 36 37 38 40 44 47 50 53 55 57 58 60 62 64 67 70 73 76 80 84 87 89 93 98 101 102 104 106 108 110 113 114 115 116 117 118 119 121 124 126 126 122 115 107 103 103 99 91 86 81 76 73 70 66 64 63 63 63 63 62 61 60 60 59 57
11 13 13 13 14 13 12 11 10 11 11 13 15 13 12 15 18 20 22 24 26 29 32 35 37 39 41 44 47 50 54 56 58 59 60 62 64 67 70 73 76 79 83 87 90 93 97 100 102 103 105 108 111 113 115 117 118 118 119 120 122 124 126 127 126 121 114 107 104 102 97 90 84 80 76 72 68 65 64 65 65 65 64 62 61 61 60 58
15 15 15 15 15 14 12 11 11 12 13 14 15 13 13 16 18 20 22 23 26 29 32 35 37 39 41 43 46 49 53 56 58 60 61 63 65 67 70 73 76 79 82 86 89 92 96 99 102 104 106 108 110 112 114 115 116 117 119 120 122 124 125 127 129 128 123 114 106 100 96 92 87 83 80 76 72 69 67 67 68 67 66 64 63 61 58 56
17 17 16 15 15 14 13 12 12 13 14 15 15 13 14 17 19 21 22 24 26 29 32 34 36 38 40 42 45 48 51 54 57 60 62 64 66 68 71 74 76 78 81 85 89 92 95 99 102 105 106 107 109 111 113 114 115 117 118 120 121 124 125 126 129 130 126 120 111 102 95 91 88 86 83 81 78 74 72 71 71 70 68 66 64 61 57 53
18 17 16 16 16 14 13 13 13 13 15 16 15 14 16 18 20 21 23 25 27 30 32 34 36 38 40 42 44 47 50 53 56 60 63 65 67 69 71 73 76 78 81 84 88 91 94 97 101 104 106 107 110 112 114 116 117 118 120 122 123 124 124 124 125 127 125 122 117 110 101 94 92 90 89 87 84 80 77 75 74 72 69 67 64 60 55 51
18 18 17 16 15 13 13 13 13 14 17 16 14 15 17 19 20 22 23 25 28 30 32 34 35 38 40 42 44 47 50 53 56 60 63 66 68 69 71 73 76 78 80 83 87 90 93 95 99 103 105 107 110 112 114 116 118 120 122 125 126 126 127 126 125 125 124 121 117 114 108 103 98 96 94 92 89 85 80 76 74 72 70 67 64 59 54 50
19 19 17 14 13 13 13 13 14 16 16 15 15 16 18 19 21 22 24 26 28 30 32 33 35 37 39 42 44 47 50 53 56 60 63 66 68 70 72 73 76 78 80 83 87 90 92 94 97 101 104 106 109 112 114 116 119 122 124 126 127 128 130 130 129 127 125 121 116 112 111 108 104 101 98 95 92 87 82 78 75 74 71 69 66 61 56 53
20 19 16 13 12 13 13 13 15 15 14 14 15 16 17 19 21 23 25 27 28 30 32 33 35 37 39 42 45 48 51 53 56 60 63 66 68 71 72 74 76 79 81 84 87 91 93 94 95 99 102 104 108 111 114 118 121 123 125 126 128 129 129 129 129 127 125 123 119 114 112 109 106 103 101 98 94 90 85 80 77 75 73 71 67 62 57 54
21 19 16 13 12 12 12 14 14 13 12 13 15 16 17 19 22 24 25 27 29 30 32 33 35 37 39 42 45 48 51 53 56 59 62 65 68 71 73 75 77 79 81 84 87 91 95 97 99 102 104 106 110 113 115 119 123 126 127 127 128 128 127 126 126 125 124 125 124 118 113 109 106 103 101 98 95 92 88 84 81 78 75 72 68 63 58 54
21 19 15 13 11 11 12 13 12 10 10 12 14 15 17 19 22 23 25 27 29 31 33 34 36 38 40 42 45 49 51 54 56 59 62 65 68 71 73 75 77 79 81 84 87 91 96 100 102 106 111 114 117 120 121 121 124 126 127 127 127 127 127 126 126 125 125 126 127 123 118 112 107 103 99 97 95 92 88 85 83 80 78 75 71 66 60 55
21 18 15 12 11 11 12 12 10 10 10 12 13 14 16 19 21 23 25 27 29 31 33 35 37 39 41 43 46 49 52 55 57 59 62 64 67 70 73 75 77 80 82 84 86 89 94 99 102 107 111 116 119 122 123 123 124 126 127 127 127 128 128 127 126 127 128 127 127 126 123 117 111 105 100 97 95 92 89 86 84 82 80 78 75 70 63 57
19 17 14 12 11 11 11 10 10 9 10 11 12 14 16 18 20 22 24 25 28 30 33 35 38 40 42 44 47 50 53 55 58 61 63 65 67 69 72 75 77 80 82 84 86 88 92 96 100 104 109 113 117 120 121 122 123 126 128 129 128 127 127 127 128 129 130 129 129 129 126 122 116 110 105 101 98 96 93 90 87 85 83 81 78 73 67 61
18 16 14 12 10 10 10 10 9 9 10 10 11 13 15 17 19 21 22 24 27 30 33 35 38 40 43 46 48 51 54 56 59 61 64 66 67 69 71 74 76 79 81 83 85 87 90 94 97 101 106 111 115 118 119 121 123 125 129 131 131 129 129 129 130 131 132 132 132 132 129 125 120 114 109 106 103 101 99 95 92 89 87 85 81 77 72 66
17 15 13 11 10 9 9 9 8 8 9 9 10 12 14 16 18 20 22 24 27 30 33 36 38 41 44 46 48 50 53 56 58 61 63 66 68 69 71 73 75 78 80 83 85 87 90 93 96 99 104 108 112 116 118 119 121 124 127 130 132 131 131 132 132 133 133 134 134 133 131 127 123 119 115 110 107 104 102 99 94 91 88 86 84 81 77 72
16 14 13 11 9 8 8 8 7 7 7 7 8 10 13 15 17 19 21 24 27 30 33 35 38 41 43 46 48 49 51 54 57 59 61 64 67 69 71 73 75 78 81 83 85 87 89 91 94 98 101 106 110 113 116 119 121 122 125 128 131 133 134 135 135 135 135 134 134 133 131 129 127 124 120 114 108 104 101 99 95 92 88 87 85 83 80 76
15 13 12 10 9 7 7 7 6 6 5 5 7 9 12 14 16 19 21 24 27 30 33 35 38 41 43 46 48 49 51 54 57 59 60 63 66 69 71 73 75 77 80 83 85 87 89 91 93 96 99 104 108 112 114 117 119 120 123 127 132 135 137 138 138 138 137 136 135 134 134 134 132 128 122 117 111 104 100 98 95 92 89 87 85 83 81 78
14 13 11 10 8 7 6 6 5 4 3 3 5 8 11 14 16 19 22 25 27 30 33 35 38 40 43 45 48 49 51 54 57 60 61 62 65 68 71 73 75 77 79 82 85 87 90 92 94 96 98 102 107 111 114 116 118 120 124 128 133 137 139 139 139 139 139 139 138 137 137 137 136 132 126 120 114 108 103 99 96 93 91 89 87 85 82 79
Wind_Direction
202 205 207 209 212 213 213 217 222 224 227 229 229 230 233 236 239 242 245 250 256 261 265 268 271 275 278 281 283 285 286 287 288 288 289 290 290 291 292 292 292 292 292 291 291 291 290 290 290 290 290 290 290 291 291 292 292 293 293 293 292 292 292 291 290 290 289 288 287 286 286 285 284 283 282 282 281 280 279 278 277 276 276 275 274 273 272 271
202 205 209 211 213 214 215 219 223 224 227 229 230 232 235 239 243 247 251 256 261 265 268 272 275 278 281 284 285 287 288 289 290 291 292 293 293 294 294 293 293 292 292 292 291 291 291 292 292 292 292 293 293 294 294 294 294 294 294 294 293 292 292 291 291 290 290 289 288 288 287 286 286 285 284 283 282 281 280 279 279 278 277 276 276 275 274 273
202 205 208 209 211 213 216 219 222 223 226 229 231 234 237 241 246 251 255 258 262 266 269 273 277 280 282 285 286 288 290 292 293 293 293 294 294 294 294 293 293 293 293 293 293 293 293 294 294 295 296 296 296 296 296 296 295 295 294 294 294 293 293 293 293 292 292 291 290 290 289 288 287 286 285 284 283 282 281 281 280 279 279 278 277 276 275 274
202 204 207 208 208 211 215 219 220 222 225 229 232 235 239 243 248 251 255 258 262 266 270 274 277 281 284 286 288 290 292 294 294 294 294 294 293 293 293 293 293 294 294 294 295 295 296 297 297 297 298 298 297 297 297 296 296 296 296 296 297 297 297 296 296 295 294 293 293 292 291 290 289 288 287 285 284 283 282 282 281 280 279 279 278 277 276 275
203 204 206 207 207 208 213 218 220 222 224 227 230 235 239 244 248 251 255 258 262 267 271 275 279 283 286 288 291 293 294 294 294 293 293 293 293 293 294 295 295 296 296 297 297 298 299 299 299 299 299 299 299 299 299 300 300 301 301 302 302 301 301 300 299 298 297 296 295 294 292 291 290 288 287 286 285 284 283 282 282 280 280 279 278 277 276 275
203 204 206 207 207 207 212 217 220 221 224 226 229 234 238 243 247 251 255 260 265 269 273 277 282 286 289 291 293 293 293 293 293 293 294 294 295 296 296 297 298 299 299 300 300 301 301 301 301 301 301 301 302 303 304 305 306 307 307 307 306 305 304 302 301 299 298 297 296 294 293 291 290 289 288 287 286 285 284 283 282 281 280 279 278 277 276 275
203 203 206 206 207 208 212 217 220 223 225 228 231 234 238 243 248 253 258 264 269 273 278 282 286 289 290 291 291 291 292 292 293 294 296 297 297 298 299 299 300 301 301 302 302 302 301 302 302 303 304 306 307 309 310 311 311 310 309 308 306 305 304 302 300 299 298 296 295 293 292 291 290 289 287 286 285 285 284 283 282 281 280 279 278 277 276 275
203 203 205 206 207 209 213 217 221 225 229 231 234 237 241 246 251 257 263 269 273 277 282 286 288 289 289 289 290 291 293 294 295 296 298 299 300 300 301 301 302 303 303 303 302 303 303 305 307 309 311 313 314 314 314 313 311 310 308 307 306 304 303 301 300 299 297 295 293 292 291 290 289 287 286 285 284 283 283 282 281 280 279 278 277 276 276 276
204 203 204 206 207 211 215 219 223 227 231 234 237 240 244 249 256 262 267 272 276 281 285 287 287 287 287 289 291 293 295 296 297 299 300 300 301 302 303 304 304 304 304 305 306 308 310 312 314 316 317 316 315 314 313 312 311 310 309 308 307 306 304 303 302 300 298 296 294 292 291 289 288 286 285 284 283 282 281 280 279 278 277 277 276 276 275 275
203 202 203 205 208 212 216 220 224 228 232 236 240 243 247 253 259 264 270 274 279 282 284 284 285 286 289 291 293 295 297 298 300 300 301 302 303 305 305 305 306 306 308 310 313 315 317 318 318 318 317 316 315 314 313 313 313 313 313 313 312 311 309 308 307 304 302 300 298 296 294 291 289 286 285 283 282 281 280 279 277 277 276 275 275 274 273 273
202 202 201 204 208 213 217 221 225 230 234 238 242 246 251 256 261 266 272 276 279 281 282 283 286 289 291 294 296 298 299 300 301 302 303 304 306 306 306 307 309 312 314 316 318 319 319 319 318 317 316 315 316 316 316 317 318 319 319 319 318 317 315 314 312 310 308 307 305 302 299 295 292 289 287 285 283 281 280 278 277 277 276 275 275 274 273 272
200 202 201 203 208 214 218 222 226 231 234 238 243 248 253 258 264 268 273 276 279 280 282 285 288 291 294 296 298 299 300 301 302 304 305 306 307 308 310 313 316 318 319 320 320 319 318 317 316 316 317 318 319 321 321 322 324 325 325 324 323 321 319 318 316 314 313 311 309 306 302 298 295 293 290 288 285 282 280 279 278 277 276 275 275 274 273 272
198 202 201 203 208 214 219 223 227 231 235 239 244 249 255 260 266 270 274 276 279 281 285 288 291 293 296 297 298 300 301 303 304 306 308 310 312 314 317 319 320 320 320 319 318 317 316 317 318 320 322 325 326 327 327 328 329 329 328 327 326 323 320 320 319 318 317 315 311 308 304 299 296 295 292 289 286 283 281 279 278 277 276 275 274 273 273 272
195 201 203 204 209 214 218 222 227 232 236 241 246 251 257 263 268 271 274 277 280 284 288 291 293 295 297 298 300 302 303 305 308 310 313 316 318 320 321 321 321 319 318 317 317 317 319 322 325 327 329 331 331 332 332 333 333 332 330 328 328 326 322 321 322 322 321 318 314 311 308 303 299 297 293 289 287 284 282 280 279 278 277 276 275 274 273 272
193 199 203 205 209 213 217 222 227 231 236 242 248 254 259 264 268 272 275 279 283 287 290 293 295 296 298 300 302 304 307 309 312 315 318 321 322 322 321 319 318 317 317 319 322 324 328 330 332 334 335 335 335 335 336 337 336 335 333 331 330 328 325 324 324 325 324 321 317 314 312 308 304 300 295 291 288 285 283 281 280 279 278 277 276 275 274 273
192 197 202 205 209 213 217 222 226 231 237 243 249 254 259 264 269 273 277 282 287 290 292 294 296 298 300 302 305 308 311 313 317 321 324 324 323 321 320 319 319 320 323 327 330 332 334 335 336 338 339 338 338 339 339 339 337 335 333 331 330 329 327 326 325 326 326 323 320 317 314 311 306 302 297 293 290 288 285 284 283 281 280 279 278 277 276 275
193 197 201 205 210 214 218 223 227 231 237 243 249 255 260 266 271 277 282 287 289 291 294 296 298 301 304 307 309 312 314 319 324 327 326 324 322 321 320 320 323 327 331 333 335 337 338 339 341 342 342 342 341 341 340 339 336 333 332 331 332 330 329 329 328 328 327 324 322 319 316 313 308 303 298 295 293 291 290 288 286 284 283 281 280 278 277 276
193 197 200 205 210 214 219 224 228 232 238 244 250 257 263 269 276 282 286 289 291 294 296 299 302 305 308 310 313 317 323 327 328 326 324 323 323 323 324 328 333 336 339 341 342 343 344 345 346 345 344 344 342 340 338 338 337 335 335 335 336 334 332 332 332 331 329 327 324 322 319 315 310 305 301 298 297 295 294 292 289 287 285 283 281 279 278 277
193 196 200 204 208 214 220 225 229 234 240 247 254 261 268 275 281 285 287 290 293 296 300 303 306 309 311 315 322 327 327 325 323 323 325 326 326 329 334 338 341 343 347 348 348 348 348 347 346 346 345 344 341 339 339 341 341 340 339 339 339 338 335 334 335 334 332 330 328 325 322 317 312 308 304 302 300 299 297 295 292 290 288 286 284 282 281 279
192 195 199 203 207 214 221 226 230 237 243 251 259 266 273 279 283 286 289 293 297 301 304 307 310 314 321 327 330 327 323 323 325 326 327 328 332 337 342 345 347 350 352 351 349 348 348 348 348 348 347 345 344 343 343 344 344 343 342 342 342 341 339 336 337 336 334 332 330 328 324 320 315 310 306 305 303 301 299 297 296 294 292 290 288 285 284 282
193 195 199 203 209 216 221 226 232 240 248 256 265 272 277 281 285 289 294 299 303 306 308 311 317 325 331 329 324 321 322 324 325 327 331 336 342 348 351 352 354 354 353 351 349 349 350 350 350 349 349 348 348 347 346 346 346 345 344 344 343 343 341 338 337 337 335 333 332 329 327 323 316 311 309 307 305 303 301 300 298 296 294 292 289 287 285 284
194 196 200 205 211 217 223 229 237 245 254 263 269 275 279 283 289 294 299 303 306 308 312 319 329 333 329 323 321 322 321 324 331 338 345 350 354 356 357 357 356 354 352 350 350 350 351 352 352 352 351 351 351 350 348 347 347 347 346 346 345 343 343 341 339 338 336 334 333 331 330 325 318 314 312 310 307 306 303 301 299 296 294 293 292 290 289 287
194 196 200 205 212 218 225 234 243 251 259 266 271 276 281 287 294 299 303 306 309 315 324 332 333 329 325 325 328 330 334 344 352 356 359 360 0 0 360 358 356 354 353 352 352 353 353 353 354 354 354 354 353 352 351 349 348 348 348 347 346 344 343 343 342 340 337 335 334 334 332 327 320 317 314 312 311 308 305 302 300 298 297 296 295 293 292 290
189 193 198 204 211 219 229 238 247 255 262 268 273 280 287 293 299 304 307 313 322 330 335 334 329 329 332 335 339 347 356 1 3 3 4 3 2 2 0 358 355 354 356 356 356 356 356 355 356 356 356 355 354 354 353 352 351 349 348 348 347 346 345 344 344 343 340 336 334 335 334 329 323 318 316 315 313 310 307 305 304 302 300 299 298 297 295 293
184 189 196 203 212 222 231 240 249 257 264 271 279 286 294 299 304 310 317 329 337 338 336 334 336 342 346 350 356 3 7 8 7 6 5 4 4 3 360 358 356 356 360 1 359 359 358 357 358 358 357 356 356 355 355 354 353 351 350 350 349 348 347 345 344 344 342 337 335 336 336 333 326 320 319 318 316 313 311 309 307 306 304 303 301 299 297 294
182 188 196 205 213 222 232 243 252 260 269 278 286 294 300 305 312 323 335 344 342 335 334 339 347 355 360 4 8 11 12 11 10 8 6 5 4 2 0 359 358 359 3 4 2 0 0 360 360 359 358 358 357 357 356 356 354 353 352 352 351 350 349 347 344 344 343 340 339 338 338 336 329 322 323 322 319 316 313 312 310 308 306 304 302 300 298 296
183 190 198 206 215 223 234 244 255 265 275 286 294 300 307 317 331 342 345 345 340 337 342 353 1 6 10 13 14 15 14 13 12 10 8 6 4 3 3 1 0 1 4 7 5 2 3 2 1 0 359 359 358 357 357 357 356 355 354 353 353 352 350 348 346 345 344 342 341 339 338 337 330 324 325 324 320 318 316 315 313 310 308 305 303 301 298 296
184 192 200 207 216 226 237 249 261 273 283 293 301 310 324 342 353 352 347 348 352 359 7 13 14 15 17 18 18 17 16 15 13 10 8 6 6 6 6 5 5 3 4 7 7 5 5 4 2 2 1 360 359 358 358 358 357 357 355 354 354 354 352 350 347 345 343 342 342 340 339 338 332 328 329 327 324 322 321 318 315 312 309 306 303 301 299 297
187 195 202 209 218 230 245 258 269 281 292 302 315 336 356 7 5 356 355 3 12 17 20 20 20 21 21 21 20 19 17 15 13 11 10 10 10 10 10 10 10 6 4 7 9 7 6 5 4 3 3 1 360 359 359 359 358 357 357 356 355 355 353 351 349 347 344 342 343 343 341 340 337 334 333 331 327 325 323 319 316 312 310 307 305 303 301 299
189 196 203 211 225 240 254 265 278 290 306 326 358 17 22 21 9 4 11 18 23 24 24 24 23 23 23 22 21 19 17 16 15 14 14 14 14 13 14 13 12 9 6 6 9 9 7 6 5 4 4 3 1 0 360 360 359 358 357 357 357 357 355 353 351 349 346 344 346 346 345 343 341 339 336 333 330 328 324 321 317 314 312 311 309 307 306 305
191 198 207 220 233 245 256 269 285 312 6 35 44 40 36 30 17 18 26 27 29 29 27 27 26 25 25 24 23 21 20 20 19 18 17 17 17 16 16 15 14 12 9 7 9 10 8 7 6 5 4 4 3 2 1 0 359 358 357 357 358 359 358 356 355 352 348 347 349 349 348 346 344 342 340 336 334 331 327 324 321 319 317 315 312 311 309 308
195 202 211 221 230 241 253 263 40 74 71 68 62 51 44 40 31 32 35 34 35 34 32 31 29 28 29 28 26 24 24 23 21 20 19 18 18 18 17 16 15 14 12 9 9 11 9 7 7 6 5 4 4 3 2 1 360 359 358 357 357 359 0 359 358 356 352 350 351 351 351 349 347 345 343 339 337 334 330 327 324 322 320 317 315 313 311 309
196 200 204 208 213 209 166 111 96 90 86 79 66 54 50 47 41 40 41 41 40 37 34 33 32 33 32 30 27 26 24 22 21 20 19 18 18 18 17 16 15 14 13 11 9 10 10 8 7 7 6 5 4 4 3 2 1 0 360 358 357 359 360 360 360 359 355 353 353 354 352 351 349 346 345 342 339 337 333 329 327 324 323 320 318 316 314 312
186 186 184 180 164 134 114 104 98 95 90 80 65 58 56 51 46 46 47 45 42 39 36 35 35 35 33 30 28 25 23 21 20 19 19 18 17 16 16 15 14 14 14 12 10 9 10 10 9 8 7 5 5 4 4 4 3 1 1 360 358 358 360 0 360 360 358 354 354 355 354 353 351 348 347 345 342 339 335 332 329 327 325 323 321 319 316 314
168 165 158 146 129 116 108 103 100 96 89 77 67 65 61 53 51 52 50 47 43 40 38 37 36 35 33 29 27 24 22 21 20 19 18 18 17 16 15 14 14 14 14 14 12 10 10 11 10 9 8 6 5 5 5 4 4 3 2 1 360 358 359 1 0 0 360 356 353 356 357 355 353 351 349 347 344 340 337 334 332 330 329 327 325 323 320 318
152 146 138 127 116 110 106 105 103 96 86 75 72 69 62 55 55 55 51 46 43 40 38 37 35 34 31 28 25 23 22 20 19 18 17 17 16 15 14 14 14 14 14 14 13 12 11 11 11 9 8 7 6 6 5 5 5 4 3 2 1 359 359 0 1 1 1 360 356 356 358 357 354 352 350 349 347 343 340 338 336 335 334 333 331 328 325 323
141 134 126 118 113 110 108 107 102 93 84 78 76 72 63 59 58 54 49 45 41 39 37 35 33 31 28 26 23 21 20 20 19 17 16 16 15 15 14 14 13 13 14 14 14 13 12 11 11 10 9 8 7 6 6 6 6 5 3 3 2 1 359 359 0 0 2 3 1 358 358 357 355 354 353 352 351 349 346 343 342 340 339 337 335 333 330 327
130 125 120 117 115 114 112 106 97 90 86 81 79 72 64 62 58 52 47 43 40 37 35 33 30 28 25 23 21 19 18 18 17 17 16 15 15 14 14 13 13 13 13 14 13 13 12 11 11 10 10 9 8 7 6 6 6 6 4 4 3 2 1 0 0 1 2 3 3 1 359 358 356 355 355 355 354 354 352 348 346 344 343 341 339 336 333 330
126 124 123 120 119 117 113 103 94 91 87 83 79 72 66 63 55 49 45 41 38 35 32 30 28 25 22 20 18 17 16 16 16 16 16 16 15 14 13 13 12 12 12 12 13 13 12 11 11 10 10 9 8 7 6 5 6 6 5 5 4 3 3 3 2 1 1 2 2 2 1 360 358 357 357 358 357 357 355 352 350 348 346 344 342 339 336 333
128 127 126 123 122 118 109 100 96 92 87 82 79 72 66 60 51 46 43 39 36 33 30 28 25 23 20 18 16 15 14 14 15 16 16 16 15 14 13 12 12 11 10 11 12 12 12 11 11 10 10 9 9 7 6 5 6 7 6 6 5 4 4 4 4 3 2 2 2 2 2 2 1 360 0 0 360 359 358 355 352 350 348 347 345 342 339 336
131 128 127 126 124 117 107 103 99 91 86 83 79 72 64 55 49 45 41 37 34 30 28 25 23 21 18 16 15 13 13 13 14 15 16 16 15 14 13 12 11 11 10 9 10 11 12 12 11 10 10 10 10 9 7 7 7 7 7 7 6 5 4 5 5 4 3 3 3 2 3 4 3 2 2 2 1 360 359 357 354 352 351 349 348 346 343 341
132 129 130 130 125 117 111 106 96 90 88 85 77 68 60 53 48 44 39 34 31 27 25 22 20 19 17 15 14 12 12 12 13 14 15 15 15 14 13 12 12 11 10 9 8 10 11 12 11 10 10 10 11 11 9 9 8 8 8 8 7 6 5 5 5 5 3 3 4 5 5 5 4 3 3 3 2 0 359 358 357 355 353 352 351 350 348 346
132 131 133 131 123 117 112 104 96 92 91 84 73 64 56 51 46 40 35 31 27 24 22 19 18 16 15 14 13 11 11 11 12 13 14 14 14 14 13 12 12 11 10 9 8 8 9 11 11 11 11 10 11 11 11 10 9 8 9 9 8 7 6 5 5 4 3 3 5 7 8 7 6 5 4 4 2 1 360 359 359 357 356 355 354 353 352 349
132 132 133 130 124 119 114 105 99 96 91 79 68 61 55 49 42 37 32 28 25 22 19 17 15 14 13 12 11 11 11 11 11 12 13 13 14 14 14 13 12 11 10 9 8 7 7 9 10 10 11 11 11 11 12 11 10 9 9 9 8 7 6 5 4 4 4 4 5 8 9 9 8 6 5 4 3 2 1 0 0 359 358 357 357 356 355 353
133 134 135 133 128 122 116 108 103 97 87 75 67 61 54 46 39 34 30 26 23 20 18 15 14 12 11 10 10 10 10 10 11 11 12 12 12 13 13 13 12 11 10 10 8 7 7 8 9 9 10 10 10 11 11 12 11 10 9 9 8 8 7 6 5 4 6 6 6 7 9 10 10 8 6 5 4 4 3 2 1 0 359 359 359 359 358 357
136 138 140 139 131 124 118 111 102 92 83 74 68 61 51 43 36 31 28 24 21 19 17 15 13 11 10 9 9 9 9 10 10 10 11 11 11 12 12 12 12 11 11 10 10 9 8 8 8 9 9 10 10 11 11 11 12 11 9 9 9 8 7 6 6 5 6 7 8 8 9 10 10 9 7 6 6 5 5 3 3 2 1 1 1 0 360 359
140 143 145 142 133 126 121 113 100 88 82 76 69 57 47 39 33 28 25 22 19 17 16 14 12 11 9 8 8 8 8 9 10 10 10 10 10 11 12 12 12 12 11 11 11 10 9 9 9 9 10 10 10 11 11 11 12 11 10 10 10 9 8 7 7 7 7 8 9 9 9 10 10 10 8 7 7 7 6 5 4 3 3 2 2 2 2 1
146 147 147 143 135 128 125 116 100 87 83 79 67 53 42 35 30 25 20 18 16 14 13 11 10 9 7 7 6 6 7 8 9 9 10 10 10 11 11 12 12 12 12 12 12 11 11 10 10 9 10 11 11 11 11 11 12 12 11 10 10 10 9 8 8 9 9 9 10 10 10 10 10 10 10 9 8 8 7 6 5 4 4 3 3 3 3 2
149 150 149 145 137 132 131 122 102 88 86 79 63 48 37 30 24 20 16 13 11 10 9 8 7 7 6 5 5 5 5 6 6 7 8 9 9 10 11 11 12 12 12 12 12 12 11 11 11 10 10 11 11 11 10 11 12 12 12 11 11 11 10 9 9 9 10 11 11 11 11 10 11 11 11 11 10 9 9 7 6 5 5 4 4 4 4 3
152 152 152 148 143 138 138 129 106 92 88 77 57 40 30 23 18 14 11 9 7 6 5 5 5 4 4 4 4 4 3 3 3 4 6 7 9 9 10 11 11 12 12 13 13 12 12 11 11 11 10 10 11 11 10 10 11 12 13 12 11 12 12 11 10 10 10 11 11 11 11 11 11 12 12 12 11 11 10 9 7 6 6 6 5 5 5 5
156 156 155 154 150 145 142 133 113 98 89 71 48 31 22 14 10 8 5 4 3 2 2 2 3 3 3 3 3 2 1 1 2 2 3 5 7 8 9 10 10 11 11 12 12 12 12 11 11 10 11 10 10 11 11 10 11 11 13 13 12 12 13 13 12 11 11 11 12 11 11 11 12 12 13 12 12 11 11 11 9 8 7 7 7 6 6 6
160 160 160 160 157 150 145 139 125 106 90 62 34 19 10 4 2 1 360 360 360 360 0 1 1 2 2 2 1 1 0 1 1 2 2 3 5 7 8 9 9 10 10 10 11 11 11 11 10 10 11 11 11 11 11 10 10 11 12 14 14 13 13 14 13 12 12 12 13 12 12 12 12 12 12 12 12 11 11 12 11 10 9 9 8 8 8 7